Powrót do katalogu

OPS 4682 DEB

AktywnyPO
NORAD 38392·DEBRIS·🇺🇸 United States

Wystrzelony Apr 3, 1965 z Vandenberg Space Force Base

Loading…

Następne Przeloty (najbliższe 24 godziny)

TLE

Starzejące sięSource: Space-Track

Epoka: Sep 7, 2026, 02:31 UTC

1 38392U 65027CV  26250.10528601  .00000392  00000-0  13648-2 0  9991
2 38392  90.2561  15.2759 0028001 314.3788  45.5039 12.95347170621749

Śledź OPS 4682 DEB w czasie rzeczywistym z AllMySat

Download on the App Store